sat.trackr.live / text

‹ back to catalog

STARLINK-3623

NORAD 51772 · 2022-017E

PAYLOAD ACTIVE UNKNOWN

§ Identity

Operator
Country
US
Launch date
2022-02-25
Launch site
AFWTR
Launch vehicle
Mass (kg)
RCS (m²)

Purposes: comms

External: N2YO · Heavens-Above · Gunter

§ Orbital elements

Epoch: 2026-09-19T11:25:03.884160Z

Period
93.85 min
Inclination
53.1603°
Eccentricity
0.0001196
Mean motion
15.34385566 rev/d
Perigee alt
461.9 km
Apogee alt
463.6 km
Semi-major
6,840.9 km
B*
2.1069e-5
RAAN
176.4774°
Arg perigee
91.9071°
Mean anomaly
268.2068°
Rev number
25,202

§ Raw data

STARLINK-36231 51772U 22017E   26262.47573940  .00000335  00000+0  21069-4 0  99932 51772  53.1603 176.4774 0001196  91.9071 268.2068 15.34385566252021

JSON: /api/v1/satellites/51772 · /tle

For live sub-satellite position, see the globe view (requires WebGL).

§ Visibility from observer

Set your observer location to see the next 7 days of passes ≥ 10°. The values pass through the URL so the page stays shareable.

No JS? Fill the form by hand. The geolocation button needs JavaScript.